CAPE
3742 2933 2797 3078 2125 1563 1537 1468 3342 2315 1627 949 910 984 942 491 13 0 0 0 0 0
4107 4015 2833 3831 3269 1722 1914 1635 2682 2750 1823 1373 1004 1116 991 447 0 0 0 0 0 0
3444 4309 4209 3766 3785 3591 2940 2173 2783 2304 1932 1453 1097 1085 1012 324 0 0 0 0 0 0
3343 3139 3169 2708 3300 3250 2731 2950 2817 2287 1685 1527 1524 1255 758 118 1 0 0 0 0 0
3274 3828 2918 3016 2675 2916 3089 2965 2905 2230 1923 1445 1151 1067 657 53 0 0 0 0 0 0
3085 2988 3269 3094 3101 3125 3495 3118 2584 2176 1900 1566 1538 884 154 0 1 0 0 0 0 0
3723 3952 3715 3765 3829 3177 3618 3457 2959 2321 2019 1517 875 217 11 10 2 2 0 0 0 0
4310 4456 4477 4337 3978 4272 3410 3012 2870 2264 1669 856 419 27 8 8 1 0 0 0 0 0
4641 4459 4291 4436 4001 4117 3272 2890 2253 1677 1183 1006 366 13 0 0 0 0 0 1 0 0
3554 3420 3855 3763 3877 3555 2992 1835 1547 1713 1188 1169 76 3 2 0 0 0 0 0 0 0
3399 4105 4062 3976 3807 3030 2679 2177 1677 1372 1006 761 0 2 0 0 0 0 0 0 0 0
2717 3329 2981 3695 3688 2812 2439 1983 2016 1481 1152 967 50 0 0 0 0 0 0 0 0 0
3335 3928 3626 3776 3685 2943 2357 1823 1429 822 886 553 89 0 0 0 0 0 0 0 0 0
3771 3463 3222 3365 2752 1903 1948 1711 1645 1030 788 410 129 5 0 0 0 0 0 0 0 0
CIN
-10 -4 -0 -0 -2 -11 -17 -3 -4 -0 -0 -0 -4 -2 -0 -5 -91 -0 -0 -0 -0 -0
-9 -7 -0 -0 -0 -3 -0 -0 -1 -0 -5 -2 -0 -0 -0 -1 -0 -0 -0 -0 -0 -0
-34 -11 -1 -0 -0 -0 -0 -0 -0 -0 -5 -10 -0 -0 -0 -29 -0 -0 -0 -0 -0 -0
-32 -33 -19 -7 -0 -0 -0 -0 -0 -0 -4 -1 -0 -0 -0 -27 -38 -0 -0 -0 -0 -0
-36 -11 -27 -12 -3 -0 -0 -0 -0 -1 -0 -0 -0 -0 -3 -93 -0 -0 -0 -0 -0 -0
-43 -41 -15 -12 -1 -0 -0 -0 -0 -0 -0 -0 -0 -0 -30 -2 -0 -0 -0 -0 -0 -0
-38 -26 -21 -2 -0 -1 -1 -0 -0 -0 -0 -0 -0 -32 -43 -3 -1 -1 -0 -0 -0 -0
-22 -7 -0 -0 -0 -0 -1 -0 -0 -0 -0 -0 -4 -105 -5 -2 -0 -0 -0 -0 -0 -0
-25 -32 -18 -2 -0 -0 -0 -0 -0 -0 -1 -0 -14 -183 -0 -0 -0 -0 -0 -10 -0 -0
-1 -13 -3 -7 -1 -0 -0 -22 -22 -2 -3 -0 -160 -127 -0 -0 -0 -0 -0 -0 -0 -0
-21 -10 -0 -0 -0 -6 -0 -3 -23 -18 -12 -18 -0 -92 -0 -0 -0 -0 -0 -0 -0 -0
-186 -71 -7 -0 -0 -4 -0 -3 -1 -20 -32 -25 -248 -0 -0 -0 -0 -0 -0 -0 -0 -0
-36 -0 -0 -0 -0 -0 -5 -3 -20 -111 -61 -142 -334 -0 -0 -0 -0 -0 -0 -0 -0 -0
-3 -4 -3 -0 -2 -62 -12 -7 -4 -73 -112 -178 -384 -63 -0 -0 -0 -0 -0 -0 -0 -0
Wind_Speed
20 17 15 15 15 17 20 25 30 26 23 22 18 17 14 12 nan nan nan nan nan nan
18 18 17 14 17 11 15 23 32 27 16 17 18 19 16 18 nan nan nan nan nan nan
15 17 15 15 15 9 19 23 29 29 20 11 16 20 15 17 nan nan nan nan nan nan
15 12 11 14 13 12 19 23 27 30 27 16 12 17 17 24 nan nan nan nan nan nan
13 10 13 11 12 14 18 23 27 27 27 22 18 15 16 nan nan nan nan nan nan nan
9 9 11 12 11 15 18 21 27 30 29 28 23 20 16 nan nan nan nan nan nan nan
17 19 15 16 16 18 22 24 24 26 29 29 30 28 nan nan nan nan nan nan nan nan
22 22 21 21 23 23 21 25 26 27 27 29 29 nan nan nan nan nan nan nan nan nan
14 15 20 26 24 23 25 24 29 27 28 28 26 nan nan nan nan nan nan nan nan nan
5 9 13 20 24 27 28 31 31 31 27 29 nan nan nan nan nan nan nan nan nan nan
20 16 20 20 24 29 29 32 35 37 35 30 nan nan nan nan nan nan nan nan nan nan
22 27 13 19 28 29 33 35 35 41 42 45 nan nan nan nan nan nan nan nan nan nan
29 31 32 32 33 34 39 39 39 38 37 45 nan nan nan nan nan nan nan nan nan nan
41 40 42 39 43 44 44 48 43 45 44 46 51 nan nan nan nan nan nan nan nan nan
Wind_Direction
36 33 32 5 330 344 343 344 317 316 294 257 255 265 261 265 nan nan nan nan nan nan
24 31 12 350 340 347 344 345 346 343 316 277 259 264 268 262 nan nan nan nan nan nan
20 20 18 10 0 15 352 356 340 358 349 300 276 267 260 268 nan nan nan nan nan nan
356 343 2 21 8 11 344 348 347 355 5 346 295 279 276 259 nan nan nan nan nan nan
350 343 344 348 347 349 343 348 343 343 350 353 0 325 297 nan nan nan nan nan nan nan
346 339 321 338 337 333 339 343 342 345 347 339 334 321 318 nan nan nan nan nan nan nan
334 332 307 308 309 321 322 326 331 338 338 331 327 323 nan nan nan nan nan nan nan nan
326 318 311 305 302 298 308 315 321 324 322 330 332 nan nan nan nan nan nan nan nan nan
320 310 308 305 311 302 305 301 300 316 320 322 332 nan nan nan nan nan nan nan nan nan
206 304 294 292 292 294 292 294 299 302 307 307 nan nan nan nan nan nan nan nan nan nan
223 274 311 312 301 288 291 293 292 296 301 299 nan nan nan nan nan nan nan nan nan nan
301 298 311 301 303 300 291 295 292 291 300 300 nan nan nan nan nan nan nan nan nan nan
295 303 306 301 295 296 293 297 298 299 296 295 nan nan nan nan nan nan nan nan nan nan
292 290 287 289 291 295 289 284 293 293 299 309 292 nan nan nan nan nan nan nan nan nan